Location: Dob?e?
(49.9411°N, 15.1496°E)
Time: 11:51:16
(UTC+00:00)

DELFI C3 - Pass Details

Date: 26 October 2021
Orbit: 529 x 543 km, 97.4° (Epoch: 29 November)

Event Time Altitude Azimuth Distance (km) Brightness Sun altitude
Exits shadow 16:39:07 12° 82° (E) 1,651 ? -9.0°
Maximum altitude 16:40:26 14° 60° (ENE) 1,546 ? -9.2°
Drops below altitude 10° 16:42:28 10° 28° (NNE) 1,789 ? -9.5°
Sets 16:45:25 0° 3° (N) 2,687 ? -10.0°
